Hourly Weather Bolshoy Aksu

Today, 2 August, Monday

Time Temperature Precipitation Wind Pressure Humidity
00:00 +19°C° 0 mm 2 mps 647 mmHg 25%
01:00 +19°C° 0 mm 2 mps 647 mmHg 25%
02:00 +18°C° 0 mm 2 mps 647 mmHg 25%
03:00 +18°C° 0 mm 2 mps 647 mmHg 26%
04:00 +18°C° 0 mm 2 mps 647 mmHg 27%
05:00 +19°C° 0 mm 1 mps 647 mmHg 29%
06:00 +21°C° 0 mm 1 mps 648 mmHg 25%
07:00 +24°C° 0 mm 1 mps 648 mmHg 22%
08:00 +26°C° 0 mm 1 mps 649 mmHg 18%
09:00 +27°C° 0 mm 2 mps 649 mmHg 17%
10:00 +29°C° 0 mm 3 mps 649 mmHg 16%
11:00 +30°C° 0 mm 3 mps 649 mmHg 15%
12:00 +30°C° 0 mm 3 mps 649 mmHg 15%
13:00 +32°C° 0 mm 4 mps 649 mmHg 15%
14:00 +32°C° 0 mm 4 mps 649 mmHg 15%
15:00 +31°C° 0 mm 3 mps 648 mmHg 15%
16:00 +30°C° 0 mm 2 mps 648 mmHg 16%
17:00 +30°C° 0 mm 1 mps 648 mmHg 17%
18:00 +28°C° 0 mm 2 mps 648 mmHg 18%
19:00 +26°C° 0 mm 2 mps 648 mmHg 20%
20:00 +24°C° 0 mm 3 mps 648 mmHg 21%
21:00 +24°C° 0 mm 3 mps 648 mmHg 22%
22:00 +24°C° 0 mm 3 mps 648 mmHg 24%
23:00 +22°C° 0 mm 3 mps 648 mmHg 25%

Tomorrow, 3 August, Tuesday

Time Temperature Precipitation Wind Pressure Humidity
00:00 +22°C° 0 mm 3 mps 647 mmHg 26%
01:00 +21°C° 0 mm 3 mps 647 mmHg 27%
02:00 +21°C° 0 mm 3 mps 647 mmHg 29%
03:00 +21°C° 0 mm 2 mps 647 mmHg 29%
04:00 +21°C° 0 mm 2 mps 647 mmHg 30%
05:00 +20°C° 0 mm 2 mps 647 mmHg 30%
06:00 +24°C° 0 mm 2 mps 648 mmHg 27%
07:00 +26°C° 0 mm 1 mps 649 mmHg 24%
08:00 +28°C° 0 mm 1 mps 649 mmHg 21%
09:00 +29°C° 0 mm 2 mps 649 mmHg 20%
10:00 +30°C° 0 mm 2 mps 649 mmHg 19%
11:00 +31°C° 0 mm 3 mps 649 mmHg 18%
12:00 +33°C° 0 mm 4 mps 649 mmHg 17%
13:00 +33°C° 0 mm 4 mps 649 mmHg 17%
14:00 +34°C° 0 mm 5 mps 649 mmHg 16%
15:00 +33°C° 0 mm 4 mps 649 mmHg 17%
16:00 +33°C° 0 mm 4 mps 649 mmHg 17%
17:00 +32°C° 0 mm 4 mps 649 mmHg 17%
18:00 +30°C° 0 mm 3 mps 648 mmHg 19%
19:00 +28°C° 0 mm 3 mps 648 mmHg 21%
20:00 +26°C° 0 mm 3 mps 648 mmHg 23%
21:00 +26°C° 0 mm 3 mps 648 mmHg 24%
22:00 +25°C° 0 mm 3 mps 648 mmHg 25%
23:00 +25°C° 0 mm 4 mps 648 mmHg 26%

Day after tomorrow, 4 August, Wednesday

Time Temperature Precipitation Wind Pressure Humidity
00:00 +24°C° 0 mm 3 mps 648 mmHg 28%
01:00 +24°C° 0 mm 3 mps 648 mmHg 29%
02:00 +22°C° 0 mm 3 mps 648 mmHg 30%
03:00 +22°C° 0 mm 3 mps 648 mmHg 30%
04:00 +23°C° 0 mm 2 mps 648 mmHg 31%
05:00 +23°C° 0 mm 2 mps 648 mmHg 31%
06:00 +25°C° 0 mm 2 mps 649 mmHg 28%
07:00 +27°C° 0 mm 2 mps 649 mmHg 25%
08:00 +29°C° 0 mm 3 mps 650 mmHg 23%
09:00 +30°C° 0 mm 3 mps 650 mmHg 22%
10:00 +31°C° 0 mm 3 mps 650 mmHg 21%
11:00 +32°C° 0 mm 4 mps 650 mmHg 20%
12:00 +33°C° 0 mm 4 mps 649 mmHg 19%
13:00 +34°C° 0 mm 5 mps 649 mmHg 17%
14:00 +34°C° 0 mm 5 mps 649 mmHg 16%
15:00 +33°C° 0 mm 5 mps 649 mmHg 18%
16:00 +32°C° 0 mm 5 mps 649 mmHg 19%
17:00 +32°C° 0 mm 5 mps 649 mmHg 20%
18:00 +29°C° 0 mm 5 mps 648 mmHg 25%
19:00 +26°C° 0 mm 5 mps 648 mmHg 30%
20:00 +23°C° 0 mm 5 mps 648 mmHg 35%
21:00 +23°C° 0 mm 4 mps 648 mmHg 35%
22:00 +23°C° 0 mm 4 mps 648 mmHg 36%
23:00 +22°C° 0 mm 4 mps 648 mmHg 36%

5 August, Thursday

Time Temperature Precipitation Wind Pressure Humidity
00:00 +22°C° 0 mm 4 mps 648 mmHg 35%
01:00 +22°C° 0 mm 3 mps 648 mmHg 35%
02:00 +21°C° 0 mm 3 mps 647 mmHg 34%
03:00 +21°C° 0 mm 3 mps 647 mmHg 34%
04:00 +21°C° 0 mm 3 mps 647 mmHg 35%
05:00 +20°C° 0 mm 2 mps 647 mmHg 35%
06:00 +24°C° 0 mm 2 mps 648 mmHg 31%
07:00 +26°C° 0 mm 2 mps 649 mmHg 27%
08:00 +28°C° 0 mm 2 mps 649 mmHg 23%
09:00 +29°C° 0 mm 3 mps 649 mmHg 22%
10:00 +32°C° 0 mm 4 mps 649 mmHg 20%
11:00 +33°C° 0 mm 4 mps 649 mmHg 19%
12:00 +33°C° 0 mm 5 mps 649 mmHg 18%
13:00 +33°C° 0 mm 6 mps 648 mmHg 18%
14:00 +34°C° 0 mm 6 mps 648 mmHg 18%
15:00 +33°C° 0 mm 7 mps 648 mmHg 19%
16:00 +32°C° 0 mm 7 mps 648 mmHg 20%
17:00 +32°C° 0 mm 8 mps 648 mmHg 21%
18:00 +28°C° 0 mm 6 mps 648 mmHg 25%
19:00 +26°C° 0 mm 5 mps 648 mmHg 30%
20:00 +23°C° 0 mm 4 mps 647 mmHg 34%
21:00 +23°C° 0 mm 4 mps 647 mmHg 35%
22:00 +22°C° 0 mm 4 mps 647 mmHg 35%
23:00 +21°C° 0 mm 3 mps 647 mmHg 36%

6 August, Friday

Time Temperature Precipitation Wind Pressure Humidity
00:00 +21°C° 0 mm 3 mps 647 mmHg 36%
01:00 +21°C° 0 mm 3 mps 647 mmHg 36%
02:00 +21°C° 0 mm 3 mps 647 mmHg 36%
03:00 +21°C° 0 mm 3 mps 647 mmHg 36%
04:00 +21°C° 0 mm 3 mps 647 mmHg 37%
05:00 +21°C° 0 mm 3 mps 647 mmHg 37%
06:00 +24°C° 0 mm 3 mps 648 mmHg 34%
07:00 +25°C° 0 mm 3 mps 648 mmHg 31%
08:00 +27°C° 0 mm 4 mps 648 mmHg 28%
09:00 +28°C° 0 mm 5 mps 648 mmHg 27%
10:00 +29°C° 0 mm 5 mps 648 mmHg 25%
11:00 +30°C° 0 mm 6 mps 648 mmHg 23%
12:00 +30°C° 0 mm 7 mps 648 mmHg 23%
13:00 +30°C° 0 mm 7 mps 648 mmHg 22%
14:00 +32°C° 0 mm 8 mps 648 mmHg 22%
15:00 +31°C° 0 mm 8 mps 648 mmHg 22%
16:00 +29°C° 0 mm 8 mps 648 mmHg 23%
17:00 +29°C° 0 mm 7 mps 648 mmHg 24%
18:00 +27°C° 0 mm 6 mps 648 mmHg 27%
19:00 +25°C° 0 mm 5 mps 647 mmHg 29%
20:00 +22°C° 0 mm 3 mps 647 mmHg 32%
21:00 +21°C° 0 mm 3 mps 647 mmHg 32%
22:00 +21°C° 0 mm 4 mps 647 mmHg 32%
23:00 +20°C° 0 mm 4 mps 647 mmHg 32%

7 August, Saturday

Time Temperature Precipitation Wind Pressure Humidity
00:00 +20°C° 0 mm 3 mps 647 mmHg 34%
01:00 +19°C° 0 mm 3 mps 646 mmHg 36%
02:00 +19°C° 0 mm 3 mps 646 mmHg 38%
03:00 +19°C° 0 mm 3 mps 646 mmHg 39%
04:00 +18°C° 0 mm 2 mps 646 mmHg 40%
05:00 +18°C° 0 mm 2 mps 646 mmHg 41%
06:00 +20°C° 0 mm 2 mps 647 mmHg 36%
07:00 +24°C° 0 mm 2 mps 648 mmHg 32%
08:00 +26°C° 0 mm 2 mps 649 mmHg 27%
09:00 +27°C° 0 mm 3 mps 649 mmHg 25%
10:00 +28°C° 0 mm 3 mps 649 mmHg 23%
11:00 +30°C° 0 mm 4 mps 649 mmHg 21%
12:00 +30°C° 0 mm 4 mps 649 mmHg 20%
13:00 +32°C° 0 mm 5 mps 649 mmHg 18%
14:00 +33°C° 0 mm 5 mps 649 mmHg 16%
15:00 +32°C° 0 mm 6 mps 649 mmHg 16%
16:00 +30°C° 0 mm 6 mps 649 mmHg 16%
17:00 +30°C° 0 mm 6 mps 649 mmHg 16%
18:00 +28°C° 0 mm 6 mps 649 mmHg 20%
19:00 +26°C° 0 mm 5 mps 649 mmHg 24%
20:00 +23°C° 0 mm 4 mps 649 mmHg 27%
21:00 +22°C° 0 mm 3 mps 648 mmHg 31%
22:00 +22°C° 0 mm 3 mps 648 mmHg 35%
23:00 +21°C° 0 mm 3 mps 648 mmHg 39%
Show more

We Need Your Consent

Meteoprog and our Service Providers may store and access personal data such as cookies, device identifiers or other similar technologies on your device and process such data to personalise content and ads, as well as provide social media features and to analyse the traffic.

  • Store and/or access information on your device

    Cookies, device identifiers or other information can be stored or accessed on your device for the purposes indicated above.

  • Personalised ads and content, ad and content measurement, audience insights, and products development

    Ads and content can be personalised based on a profile. More data can be added to better personalise ads and content. Ad and content performance can be measured. Insights about the audience who saw the ads and content can be derived. Such data can be used to develop or improve user’s experience, systems and software.

By clicking ‘I Agree’ you will allow the use of indicated cookies, device identifiers, web beacons or other similar technologies. Your settings can be changed in the browser on your device.

For certain purposes, legitimate interests may be relied on, rather than consent. You can read more about this in our Privacy and Cookie Policy.